Regional Weather Roundup
Issued by NWS Portland, ME

Current Version | Previous Version | Text Only | Print | Product List | Glossary Off
Versions: 1 2 3 4 5 6 7 8 9 10 11 12 13 14 15 16 17 18 19 20 21 22 23 24 25 26 27 28 29 30 31 32 33 34 35 36 37 38 39 40 41 42 43 44 45 46 47 48 49 50

000
ASUS41 KGYX 291610
RWRGYX
WEATHER ROUNDUP FOR MAINE AND NEW HAMPSHIRE
NATIONAL WEATHER SERVICE GRAY ME
1200 PM EDT SUN MAR 29 2015

MEZ002-005-006-010-012-015-018-020-021-024-026-027-029-291700-
MAINE

CITY           SKY/WX    TMP DP  RH WIND       PRES   REMARKS
PORTLAND       SUNNY     38   3  23 NW3       30.16F
SANFORD        SUNNY     37   7  28 W6        30.16F
BAR HARBOR     SUNNY     32   1  27 N7        30.12F
WISCASSET      SUNNY     35  -3  19 NE6       30.16F
ROCKLAND       SUNNY     34   3  27 W10       30.13F
FRYEBURG       SUNNY     36   0  21 N6        30.13F
LEWISTONAUBURN SUNNY     34   1  25 N5        30.14F
AUGUSTA        SUNNY     32  -1  24 VRB3      30.13F
WATERVILLE     SUNNY     34   1  25 NW6       30.10F
BANGOR         SUNNY     33   2  26 VRB5      30.11F
GREENVILLE       N/A     26  -1  31 N10       30.01F WCI  16
MILLINOCKET    SUNNY     32   1  26 VRB3      30.08F
HOULTON        SUNNY     30   3  31 W8G22     30.03F
PRESQUE ISLE   SUNNY     30   3  31 CALM      30.03F
FRENCHVILLE    SUNNY     30   5  34 NW9       29.98S
CARIBOU        SUNNY     31   6  35 VRB3      30.00F
$$

NHZ002-005-008-009-011-012-014-291700-
NEW HAMPSHIRE

CITY           SKY/WX    TMP DP  RH WIND       PRES   REMARKS
PORTSMOUTH     SUNNY     34   7  32 W6        30.16F
ROCHESTER      SUNNY     35   3  26 CALM      30.15F
NASHUA         SUNNY     36  -2  20 NW12      30.19F
MANCHESTER     SUNNY     36   2  23 N13       30.16F
CONCORD        SUNNY     36   0  21 NW10      30.17F
LACONIA        SUNNY     34   0  23 NW5       30.13F
PLYMOUTH       FAIR      33   9  36 W9        30.16F
BERLIN         SUNNY     29   1  30 SW8       30.11F
WHITEFIELD     SUNNY     29  -1  27 VRB3      30.14F
JAFFREY        SUNNY     31  -1  25 VRB5      30.14F
KEENE          SUNNY     34   1  25 N10       30.19F
LEBANON        SUNNY     35   5  28 N10       30.18F
MT WASHINGTON  MOSUNNY    7 -18  30 N24         N/A  WCI -15
$$

VTZ005-007-008-291700-
VERMONT

CITY           SKY/WX    TMP DP  RH WIND       PRES   REMARKS
ST JOHNSBURY     N/A     31   2  29 MISG      30.15F
MONTPELIER     SUNNY     28   1  31 NW7G20    30.19F
BURLINGTON     MOSUNNY   34   1  24 W6        30.21F
$$

MAZ007-012-024-CTZ003-RIZ002-NYZ038-NYZ072-291700-
SOUTHERN NEW ENGLAND AND NY

CITY           SKY/WX    TMP DP  RH WIND       PRES   REMARKS
BOSTON         SUNNY     35   8  32 VRB3      30.20F
WORCESTER      SUNNY     32   5  32 NW8       30.15F
NANTUCKET      SUNNY     39  21  48 N14       30.16F
PROVIDENCE     MOSUNNY   35  11  36 N9        30.20F
HARTFORD       SUNNY     38   2  22 N8        30.21F
ALBANY         SUNNY     35   8  32 W12       30.26F
NEW YORK CITY  SUNNY     36   3  25 NW9       30.28S
$$

ANZ081-ANZ082-ANZ150-NHZ014-MEZ023>029-291700-
COASTAL MARINE OBSERVATIONS

STATION/POSITION TIME  TEMP    WIND        PRES    WAVE
                       AIR SEA DIR/SP/G            HT/PER
                 (UTC) (F)     (DEG/KT/KT) (MB)    (FT/S)
MOUNT DESERT ROC 1600   29                 1020.0F
MATINICUS ROCK   1600   29     270/  6/  7 1020.9F
WELLS            1500   32     160/  8/  9 1021.3F
ISLE OF SHOALS   1600   29     190/  5/  6 1021.6F
JEFFREYS LEDGE   1521      40                N/A     7/10
CASHES LEDGE BUO 1550   29 38              1021.4F   6/12
$$

.............KEY..............
   WCI - WIND CHILL
   TC  - TEMPERATURE IN CELSIUS
   VSB - VISIBILITY IN MILES
   HX  - HEAT INDEX
   FAIR- INDICATES FEW OR NO CLOUDS BELOW 12,000 FT, WITH NO
         SIGNIFICANT WEATHER AND/OR OBSTRUCTIONS TO VISIBILITY.




USA.gov is the U.S. government's official web portal to all federal, state and local government web resources and services.